This is the latest recevied weather packets stored in our database for station/object NN5DX-12. If no packets are shown the sender has not sent any weather packets the latest 10 day(s).
| Time | Temp. | Humidity | Pressure | Rain* | Wind** | Luminosity | Snow |
|---|---|---|---|---|---|---|---|
| 1777851017 | 15° C | 21% | 1018.6 hPa | 0 mm | - | - | - |
| 1777850717 | 15° C | 20% | 1018.6 hPa | 0 mm | - | - | - |
| 1777850417 | 15° C | 23% | 1018.7 hPa | 0 mm | - | - | - |
| 1777850117 | 15° C | 22% | 1018.6 hPa | 0 mm | - | - | - |
| 1777849817 | 15° C | 24% | 1018.8 hPa | 0 mm | - | - | - |
| 1777849517 | 15° C | 23% | 1018.8 hPa | 0 mm | - | - | - |
| 1777849217 | 15° C | 22% | 1018.8 hPa | 0 mm | - | - | - |
| 1777848917 | 15.56° C | 23% | 1018.8 hPa | 0 mm | - | - | - |
| 1777848617 | 15° C | 23% | 1018.8 hPa | 0 mm | - | - | - |
| 1777848317 | 15° C | 24% | 1019 hPa | 0 mm | - | - | - |
| 1777848017 | 15° C | 23% | 1018.8 hPa | 0 mm | - | - | - |
| 1777847716 | 15° C | 25% | 1019.1 hPa | 0 mm | - | - | - |
| 1777847417 | 15° C | 24% | 1019.1 hPa | 0 mm | - | - | - |
| 1777847117 | 15° C | 23% | 1018.6 hPa | 0 mm | - | - | - |
| 1777846817 | 15° C | 22% | 1018.7 hPa | 0 mm | - | - | - |
| 1777846517 | 15.56° C | 22% | 1018.7 hPa | 0 mm | - | - | - |
| 1777846217 | 15.56° C | 23% | 1018.9 hPa | 0 mm | - | - | - |
| 1777845917 | 15.56° C | 21% | 1018.9 hPa | 0 mm | - | - | - |
| 1777845617 | 15.56° C | 22% | 1019.1 hPa | 0 mm | - | - | - |
| 1777845316 | 15.56° C | 21% | 1017.4 hPa | 0 mm | - | - | - |
| 1777845016 | 15.56° C | 21% | 1017.4 hPa | 0 mm | - | - | - |
| 1777844716 | 15.56° C | 20% | 1017.5 hPa | 0 mm | - | - | - |
| 1777844416 | 15.56° C | 20% | 1017.7 hPa | 0 mm | - | - | - |
| 1777844117 | 15.56° C | 19% | 1017.6 hPa | 0 mm | - | - | - |
| 1777843816 | 15.56° C | 19% | 1017.6 hPa | 0 mm | - | - | - |
* Rain latest hour (hover to see other rain measurements)
** Current wind speed in m/s (hover to see current wind gust speed)